CZ-6A DEB, 56269

Orbit data source: Space-Track

CZ-6A DEB, 56269 is space debris in SSO originally from a launch on Fri, 11 Nov 2022 UTC launched from the Taiyaun Space Center, China (TSC). Debris objects in space refer to the collection of defunct objects orbiting the Earth. Examples of debris include non-operational satellites, rocket bodies, and fragments generated from explosions, collisions, or faulty payload assembly.

Loading next visibility...
Identifier
56269, 2022-151ACM
Orbit
SSO
Country
Flag of CNCN / PRC
Related business
Manufacturer
SAST
Mission
Spacecraft
Bus & Motor
Unknown
Mass
Unknown
Launch date (UTC)
2022-11-11 (4 years ago)
Launch vehicle
Unknown
Launch site
Taiyaun Space Center, China (TSC)
Object type
Payload
Rocket body
Debris
Shape & HBR
Unknown shape, 0.1 m
Radar Cross Section
Small (<0.1 m²)

Expand to show TLE details & history
Last TLE update: 21 hours ago

TLE from 21 hours ago
0 CZ-6A DEB
1 56269U 22151ACM 26206.45664855  .00000431  00000-0  25346-3 0  9999
2 56269  98.8324 210.4313 0036442 215.2028 144.6736 14.12888819176170
Epoch: 2026-07-25T10:57Z
TLE epoch observation values (Epoch: 2026-07-25T10:57:34.434Z)
Latitude
-0.00008°
Longitude
102.86917°
Altitude
873.929 km
Speed
7.404 km/s
True Right ascension
14h 01m 43s
True Declination
0° 00' 00"
Sunlit
Object was in daylight at epoch
Visualization orbit readout
Latitude
Unknown
Longitude
Unknown
Altitude
Unknown
Speed
Unknown
Apparent Right ascension
Unknown
Apparent Declination
Unknown
Sunlit
N/A
Visualization observer readout
Local Sidereal Time
21:12:03
Azimuth
Unknown
Elevation
Unknown
Doppler factor
Unknown
Orbital elements
Apogee altitude
873.006 km
Perigee altitude
820.348 km
Semi-major axis
7,224.814 km
Eccentricity
0.00364
Inclination
98.8324°
RAAN
210.4313°
Arg. of periapsis
215.2028°
True anomaly
144.91417°
Mean anomaly
144.6736°
Eccentric anomaly
144.79398°
Mean motion
3.5343 °/min
Orbital period
101.86 mins
BSTAR
0.00025346
Loading maneuver chart data...
Computing Atmospheric mass density...

Documentation

Showing up to 5 results
|